| time (UTC) | temp F | wind direction | speed MPH | gust MPH | rain 1hr in | rain 24hr in | rain mn in | humidity % | barometer mb |
| 20260903093339 | 63 | 329 | 4.0 | 11.0 | 0.00 | 0.00 | 0.00 | 62 | 1006.9 |
| 20260903092847 | 63 | 284 | 5.0 | 13.0 | 0.00 | 0.00 | 0.00 | 63 | 1006.8 |
| 20260903092353 | 62 | 294 | 6.0 | 13.0 | 0.00 | 0.00 | 0.00 | 62 | 1006.8 |
| 20260903091831 | 62 | 317 | 7.0 | 15.0 | 0.00 | 0.00 | 0.00 | 63 | 1006.7 |
| 20260903091331 | 62 | 290 | 6.0 | 15.0 | 0.00 | 0.00 | 0.00 | 64 | 1006.8 |
| 20260903090839 | 62 | 301 | 6.0 | 12.0 | 0.00 | 0.00 | 0.00 | 63 | 1006.8 |
| 20260903090325 | 62 | 261 | 5.0 | 12.0 | 0.00 | 0.00 | 0.00 | 66 | 1006.8 |
| 20260903085851 | 62 | 281 | 3.0 | 8.0 | 0.00 | 0.00 | 0.00 | 68 | 1006.9 |
| 20260903085346 | 61 | 320 | 3.0 | 12.0 | 0.00 | 0.00 | 0.00 | 69 | 1006.8 |
| 20260903084826 | 61 | 301 | 3.0 | 12.0 | 0.00 | 0.00 | 0.00 | 69 | 1006.9 |
| 20260903084328 | 61 | 323 | 4.0 | 13.0 | 0.00 | 0.00 | 0.00 | 70 | 1006.9 |
| 20260903083846 | 60 | 278 | 4.0 | 12.0 | 0.00 | 0.00 | 0.00 | 70 | 1007.0 |
| 20260903083332 | 60 | 295 | 6.0 | 13.0 | 0.00 | 0.00 | 0.00 | 70 | 1006.8 |
| 20260903082859 | 60 | 242 | 6.0 | 15.0 | 0.00 | 0.00 | 0.00 | 70 | 1006.9 |
| 20260903082325 | 60 | 257 | 7.0 | 15.0 | 0.00 | 0.00 | 0.00 | 70 | 1006.9 |
| 20260903081850 | 60 | 292 | 7.0 | 14.0 | 0.00 | 0.00 | 0.00 | 70 | 1006.9 |
| 20260903081336 | 60 | 280 | 4.0 | 14.0 | 0.00 | 0.00 | 0.00 | 71 | 1006.9 |
| 20260903080902 | 59 | 290 | 4.0 | 14.0 | 0.00 | 0.00 | 0.00 | 71 | 1007.1 |
| 20260903080328 | 59 | 302 | 3.0 | 13.0 | 0.00 | 0.00 | 0.00 | 72 | 1006.8 |
| 20260903075848 | 59 | 309 | 5.0 | 13.0 | 0.00 | 0.00 | 0.00 | 73 | 1006.7 |
| 20260903075328 | 58 | 261 | 5.0 | 16.0 | 0.00 | 0.00 | 0.00 | 72 | 1006.7 |
| 20260903074857 | 58 | 300 | 5.0 | 15.0 | 0.00 | 0.00 | 0.00 | 73 | 1006.7 |
| 20260903074324 | 58 | 303 | 7.0 | 17.0 | 0.00 | 0.00 | 0.00 | 73 | 1006.7 |
| 20260903073831 | 58 | 298 | 8.0 | 17.0 | 0.00 | 0.00 | 0.00 | 74 | 1006.7 |
| 20260903073332 | 58 | 294 | 7.0 | 16.0 | 0.00 | 0.00 | 0.00 | 74 | 1006.6 |
| 20260903072832 | 58 | 360 | 4.0 | 11.0 | 0.00 | 0.00 | 0.00 | 75 | 1006.5 |
| 20260903072340 | 57 | 110 | 3.0 | 17.0 | 0.00 | 0.00 | 0.00 | 75 | 1006.6 |
| 20260903071829 | 57 | 306 | 5.0 | 16.0 | 0.00 | 0.00 | 0.00 | 75 | 1006.6 |
| 20260903071329 | 57 | 319 | 7.0 | 16.0 | 0.00 | 0.00 | 0.00 | 74 | 1006.6 |
| 20260903070837 | 57 | 283 | 3.0 | 10.0 | 0.00 | 0.00 | 0.00 | 76 | 1006.7 |
| 20260903070325 | 57 | 286 | 3.0 | 11.0 | 0.00 | 0.00 | 0.00 | 77 | 1006.7 |
| 20260903065832 | 56 | 292 | 3.0 | 14.0 | 0.00 | 0.00 | 0.00 | 77 | 1006.7 |
| 20260903065332 | 56 | 317 | 6.0 | 14.0 | 0.00 | 0.00 | 0.00 | 76 | 1006.7 |
| 20260903064832 | 56 | 284 | 1.0 | 12.0 | 0.00 | 0.00 | 0.00 | 78 | 1006.8 |
| 20260903064332 | 56 | 290 | 6.0 | 12.0 | 0.00 | 0.00 | 0.00 | 77 | 1006.8 |
| 20260903063831 | 56 | 159 | 2.0 | 8.0 | 0.00 | 0.00 | 0.00 | 78 | 1006.7 |
| 20260903063332 | 55 | 318 | 2.0 | 8.0 | 0.00 | 0.00 | 0.00 | 79 | 1006.8 |
| 20260903062831 | 55 | 286 | 1.0 | 7.0 | 0.00 | 0.00 | 0.00 | 80 | 1006.8 |
| 20260903062331 | 55 | 312 | 2.0 | 6.0 | 0.00 | 0.00 | 0.00 | 80 | 1006.9 |
| 20260903061851 | 55 | 315 | 1.0 | 7.0 | 0.00 | 0.00 | 0.00 | 81 | 1006.8 |
| 20260903061330 | 54 | 198 | 2.0 | 7.0 | 0.00 | 0.00 | 0.00 | 81 | 1006.9 |
| 20260903060829 | 54 | 214 | 1.0 | 3.0 | 0.00 | 0.00 | 0.00 | 82 | 1006.8 |
| 20260903060330 | 54 | 163 | 1.0 | 6.0 | 0.00 | 0.00 | 0.00 | 82 | 1006.8 |
| 20260903055829 | 54 | 298 | 2.0 | 12.0 | 0.00 | 0.00 | 0.00 | 82 | 1006.8 |
| 20260903055330 | 53 | 186 | 3.0 | 12.0 | 0.00 | 0.00 | 0.00 | 82 | 1006.9 |
| 20260903054829 | 53 | 196 | 2.0 | 4.0 | 0.00 | 0.00 | 0.00 | 83 | 1006.9 |
| 20260903054350 | 53 | 217 | 1.0 | 7.0 | 0.00 | 0.00 | 0.00 | 83 | 1007.0 |
| 20260903053829 | 53 | 194 | 2.0 | 7.0 | 0.00 | 0.00 | 0.00 | 84 | 1006.9 |
| 20260903053329 | 53 | 200 | 1.0 | 6.0 | 0.00 | 0.00 | 0.00 | 84 | 1007.0 |
| 20260903052831 | 53 | 175 | 2.0 | 6.0 | 0.00 | 0.00 | 0.00 | 84 | 1006.9 |
| 20260903052330 | 52 | 197 | 2.0 | 6.0 | 0.00 | 0.00 | 0.00 | 85 | 1007.0 |
| 20260903051830 | 52 | 156 | 2.0 | 10.0 | 0.00 | 0.00 | 0.00 | 85 | 1007.1 |
| 20260903051332 | 52 | 142 | 1.0 | 6.0 | 0.00 | 0.00 | 0.00 | 86 | 1007.1 |
| 20260903050831 | 52 | 190 | 3.0 | 7.0 | 0.00 | 0.00 | 0.00 | 86 | 1007.2 |
| 20260903050356 | 52 | 192 | 2.0 | 7.0 | 0.00 | 0.00 | 0.00 | 86 | 1007.3 |
| 20260903045828 | 51 | 195 | 2.0 | 7.0 | 0.00 | 0.00 | 0.00 | 86 | 1007.3 |
| 20260903045324 | 51 | 186 | 3.0 | 7.0 | 0.00 | 0.00 | 0.00 | 87 | 1007.3 |
| 20260903044825 | 51 | 319 | 2.0 | 8.0 | 0.00 | 0.00 | 0.00 | 87 | 1007.3 |
| 20260903044326 | 51 | 167 | 2.0 | 8.0 | 0.00 | 0.00 | 0.00 | 87 | 1007.3 |
| 20260903043835 | 52 | 237 | 1.0 | 6.0 | 0.00 | 0.00 | 0.00 | 87 | 1007.3 |
| 20260903043328 | 52 | 286 | 1.0 | 8.0 | 0.00 | 0.00 | 0.00 | 87 | 1007.3 |
| 20260903042829 | 52 | 214 | 2.0 | 8.0 | 0.00 | 0.00 | 0.00 | 87 | 1007.1 |
| 20260903042338 | 52 | 246 | 2.0 | 6.0 | 0.00 | 0.00 | 0.00 | 87 | 1007.2 |
| 20260903041827 | 52 | 183 | 1.0 | 4.0 | 0.00 | 0.00 | 0.00 | 87 | 1007.2 |
| 20260903041328 | 52 | 276 | 1.0 | 4.0 | 0.00 | 0.00 | 0.00 | 87 | 1007.2 |
| 20260903040828 | 52 | 208 | 1.0 | 7.0 | 0.00 | 0.00 | 0.00 | 87 | 1007.2 |
| 20260903040324 | 52 | 250 | 1.0 | 7.0 | 0.00 | 0.00 | 0.00 | 87 | 1007.2 |
| 20260903035826 | 52 | 256 | 2.0 | 6.0 | 0.00 | 0.00 | 0.00 | 87 | 1007.2 |
| 20260903035347 | 52 | 22 | 1.0 | 4.0 | 0.00 | 0.00 | 0.00 | 87 | 1007.3 |
| 20260903034827 | 52 | 301 | 1.0 | 7.0 | 0.00 | 0.00 | 0.00 | 87 | 1007.2 |
| 20260903034354 | 52 | 304 | 1.0 | 7.0 | 0.00 | 0.00 | 0.00 | 87 | 1007.2 |
| 20260903033843 | 52 | 153 | 2.0 | 6.0 | 0.00 | 0.00 | 0.00 | 87 | 1007.2 |
| 20260903033329 | 52 | 13 | 2.0 | 4.0 | 0.00 | 0.00 | 0.00 | 87 | 1007.2 |
| 20260903032836 | 52 | 312 | 1.0 | 7.0 | 0.00 | 0.00 | 0.00 | 87 | 1007.3 |
| 20260903032324 | 52 | 334 | 1.0 | 7.0 | 0.00 | 0.00 | 0.00 | 87 | 1007.2 |
| 20260903031825 | 52 | 280 | 1.0 | 5.0 | 0.00 | 0.00 | 0.00 | 88 | 1007.1 |
| 20260903031325 | 52 | 205 | 1.0 | 5.0 | 0.00 | 0.00 | 0.00 | 88 | 1007.2 |
| 20260903030825 | 52 | 340 | 2.0 | 5.0 | 0.00 | 0.00 | 0.00 | 88 | 1007.2 |
| 20260903030325 | 52 | 206 | 1.0 | 7.0 | 0.00 | 0.00 | 0.00 | 88 | 1007.1 |
| 20260903025853 | 52 | 303 | 2.0 | 9.0 | 0.00 | 0.00 | 0.00 | 88 | 1007.2 |
| 20260903025340 | 52 | 301 | 1.0 | 5.0 | 0.00 | 0.00 | 0.00 | 88 | 1007.3 |
| 20260903024847 | 52 | 299 | 1.0 | 6.0 | 0.00 | 0.00 | 0.00 | 88 | 1007.2 |
| 20260903024327 | 52 | 333 | 1.0 | 3.0 | 0.00 | 0.00 | 0.00 | 88 | 1007.2 |
| 20260903023835 | 52 | 326 | 1.0 | 5.0 | 0.00 | 0.00 | 0.00 | 88 | 1007.3 |
| 20260903023325 | 52 | 186 | 1.0 | 5.0 | 0.00 | 0.00 | 0.00 | 88 | 1007.3 |
| 20260903022826 | 52 | 24 | 1.0 | 7.0 | 0.00 | 0.00 | 0.00 | 88 | 1007.3 |
| 20260903022327 | 52 | 223 | 3.0 | 7.0 | 0.00 | 0.00 | 0.00 | 88 | 1007.3 |
| 20260903021848 | 52 | 271 | 1.0 | 5.0 | 0.00 | 0.00 | 0.00 | 88 | 1007.3 |
| 20260903021348 | 52 | 246 | 1.0 | 4.0 | 0.00 | 0.00 | 0.00 | 88 | 1007.3 |
| 20260903020827 | 52 | 236 | 1.0 | 5.0 | 0.00 | 0.00 | 0.00 | 87 | 1007.2 |
| 20260903020356 | 52 | 218 | 1.0 | 8.0 | 0.00 | 0.00 | 0.00 | 88 | 1007.3 |
| 20260903015824 | 53 | 217 | 1.0 | 7.0 | 0.00 | 0.00 | 0.00 | 88 | 1007.3 |
| 20260903015332 | 52 | 185 | 1.0 | 6.0 | 0.00 | 0.00 | 0.00 | 88 | 1007.2 |
| 20260903014828 | 52 | 314 | 2.0 | 6.0 | 0.00 | 0.00 | 0.00 | 88 | 1007.3 |
| 20260903014354 | 53 | 159 | 1.0 | 4.0 | 0.00 | 0.00 | 0.00 | 88 | 1007.4 |
| 20260903013840 | 53 | 318 | 0.0 | 5.0 | 0.00 | 0.00 | 0.00 | 87 | 1007.3 |
| 20260903013347 | 53 | 261 | 1.0 | 5.0 | 0.00 | 0.00 | 0.00 | 87 | 1007.4 |
| 20260903012836 | 53 | 220 | 1.0 | 5.0 | 0.00 | 0.00 | 0.00 | 87 | 1007.4 |
| 20260903012325 | 53 | 229 | 1.0 | 3.0 | 0.00 | 0.00 | 0.00 | 87 | 1007.4 |
| 20260903011853 | 53 | 227 | 1.0 | 6.0 | 0.00 | 0.00 | 0.00 | 87 | 1007.4 |
| 20260903011330 | 53 | 190 | 2.0 | 6.0 | 0.00 | 0.00 | 0.00 | 87 | 1007.4 |
| 20260903010851 | 53 | 182 | 1.0 | 5.0 | 0.00 | 0.00 | 0.00 | 87 | 1007.5 |
| 20260903010330 | 53 | 211 | 1.0 | 5.0 | 0.00 | 0.00 | 0.00 | 86 | 1007.5 |
| 20260903005851 | 53 | 224 | 2.0 | 5.0 | 0.00 | 0.00 | 0.00 | 86 | 1007.5 |
| 20260903005339 | 53 | 183 | 1.0 | 4.0 | 0.00 | 0.00 | 0.00 | 86 | 1007.6 |
| 20260903004828 | 53 | 199 | 1.0 | 5.0 | 0.00 | 0.00 | 0.00 | 86 | 1007.6 |
| 20260903004329 | 54 | 217 | 1.0 | 5.0 | 0.00 | 0.00 | 0.00 | 86 | 1007.6 |
| 20260903003830 | 54 | 196 | 2.0 | 5.0 | 0.00 | 0.00 | 0.00 | 86 | 1007.6 |
| 20260903003351 | 54 | 215 | 1.0 | 8.0 | 0.00 | 0.00 | 0.00 | 86 | 1007.7 |
| 20260903002830 | 54 | 281 | 2.0 | 8.0 | 0.00 | 0.00 | 0.00 | 86 | 1007.6 |
| 20260903002339 | 54 | 242 | 1.0 | 5.0 | 0.00 | 0.00 | 0.00 | 85 | 1007.6 |
| 20260903001828 | 54 | 142 | 1.0 | 5.0 | 0.00 | 0.00 | 0.00 | 85 | 1007.6 |
| 20260903001349 | 54 | 194 | 2.0 | 5.0 | 0.00 | 0.00 | 0.00 | 85 | 1007.6 |
| 20260903000828 | 54 | 199 | 1.0 | 9.0 | 0.00 | 0.00 | 0.00 | 85 | 1007.6 |
| 20260903000329 | 54 | 182 | 2.0 | 9.0 | 0.00 | 0.00 | 0.00 | 85 | 1007.7 |
| 20260902235850 | 54 | 204 | 1.0 | 6.0 | 0.00 | 0.00 | 0.00 | 85 | 1007.7 |
| 20260902235329 | 54 | 145 | 2.0 | 6.0 | 0.00 | 0.00 | 0.00 | 85 | 1007.8 |
| 20260902234829 | 54 | 171 | 1.0 | 6.0 | 0.00 | 0.00 | 0.00 | 84 | 1007.9 |
| 20260902234330 | 54 | 277 | 1.0 | 6.0 | 0.00 | 0.00 | 0.00 | 84 | 1007.9 |
| 20260902233830 | 54 | 203 | 1.0 | 6.0 | 0.00 | 0.00 | 0.00 | 84 | 1007.9 |
| 20260902233330 | 55 | 309 | 1.0 | 4.0 | 0.00 | 0.00 | 0.00 | 83 | 1007.9 |
| 20260902232831 | 55 | 173 | 1.0 | 7.0 | 0.00 | 0.00 | 0.00 | 83 | 1007.9 |
| 20260902232331 | 55 | 280 | 1.0 | 7.0 | 0.00 | 0.00 | 0.00 | 83 | 1007.9 |
| 20260902231831 | 55 | 209 | 2.0 | 5.0 | 0.00 | 0.00 | 0.00 | 83 | 1007.9 |
| 20260902231347 | 55 | 184 | 2.0 | 5.0 | 0.00 | 0.00 | 0.00 | 83 | 1007.9 |
| 20260902230825 | 55 | 210 | 2.0 | 6.0 | 0.00 | 0.00 | 0.00 | 83 | 1007.9 |
| 20260902230346 | 55 | 277 | 1.0 | 6.0 | 0.00 | 0.00 | 0.00 | 82 | 1008.0 |
| 20260902225826 | 55 | 36 | 1.0 | 8.0 | 0.00 | 0.00 | 0.00 | 82 | 1007.9 |
| 20260902225325 | 55 | 254 | 2.0 | 8.0 | 0.00 | 0.00 | 0.00 | 82 | 1007.9 |
| 20260902224846 | 55 | 209 | 1.0 | 8.0 | 0.00 | 0.00 | 0.00 | 82 | 1008.0 |
| 20260902224326 | 55 | 249 | 1.0 | 7.0 | 0.00 | 0.00 | 0.00 | 81 | 1008.0 |
| 20260902223856 | 55 | 286 | 1.0 | 7.0 | 0.00 | 0.00 | 0.00 | 81 | 1008.1 |
| 20260902223325 | 55 | 211 | 2.0 | 6.0 | 0.00 | 0.00 | 0.00 | 81 | 1008.0 |
| 20260902222826 | 55 | 253 | 2.0 | 5.0 | 0.00 | 0.00 | 0.00 | 81 | 1008.0 |
| 20260902222326 | 56 | 270 | 1.0 | 7.0 | 0.00 | 0.00 | 0.00 | 80 | 1008.0 |
| 20260902221846 | 56 | 119 | 1.0 | 7.0 | 0.00 | 0.00 | 0.00 | 80 | 1008.1 |
| 20260902221324 | 56 | 148 | 1.0 | 6.0 | 0.00 | 0.00 | 0.00 | 80 | 1008.2 |
| 20260902220845 | 56 | 230 | 2.0 | 6.0 | 0.00 | 0.00 | 0.00 | 80 | 1008.1 |
| 20260902220332 | 56 | 329 | 2.0 | 4.0 | 0.00 | 0.00 | 0.00 | 80 | 1008.1 |
| 20260902215859 | 56 | 213 | 1.0 | 5.0 | 0.00 | 0.00 | 0.00 | 79 | 1008.1 |
| 20260902215326 | 56 | 163 | 2.0 | 5.0 | 0.00 | 0.00 | 0.00 | 79 | 1008.0 |
| 20260902214836 | 56 | 303 | 1.0 | 4.0 | 0.00 | 0.00 | 0.00 | 79 | 1008.1 |
| 20260902214324 | 56 | 288 | 1.0 | 7.0 | 0.00 | 0.00 | 0.00 | 79 | 1008.1 |
| 20260902213831 | 56 | 196 | 1.0 | 7.0 | 0.00 | 0.00 | 0.00 | 78 | 1008.1 |
| 20260902213330 | 57 | 120 | 1.0 | 6.0 | 0.00 | 0.00 | 0.00 | 78 | 1008.1 |
| 20260902212829 | 57 | 230 | 1.0 | 6.0 | 0.00 | 0.00 | 0.00 | 78 | 1008.1 |
| 20260902212331 | 57 | 313 | 1.0 | 4.0 | 0.00 | 0.00 | 0.00 | 77 | 1008.1 |
| 20260902211832 | 57 | 221 | 1.0 | 6.0 | 0.00 | 0.00 | 0.00 | 76 | 1008.1 |
| 20260902211332 | 57 | 188 | 2.0 | 8.0 | 0.00 | 0.00 | 0.00 | 76 | 1008.0 |
| 20260902210832 | 57 | 202 | 2.0 | 8.0 | 0.00 | 0.00 | 0.00 | 76 | 1008.1 |
| 20260902210339 | 57 | 240 | 2.0 | 4.0 | 0.00 | 0.00 | 0.00 | 76 | 1008.0 |
| 20260902205828 | 57 | 241 | 2.0 | 8.0 | 0.00 | 0.00 | 0.00 | 76 | 1008.0 |
| 20260902205329 | 57 | 286 | 2.0 | 8.0 | 0.00 | 0.00 | 0.00 | 76 | 1008.0 |
| 20260902204831 | 57 | 239 | 2.0 | 8.0 | 0.00 | 0.00 | 0.00 | 76 | 1008.1 |
| 20260902204330 | 57 | 266 | 2.0 | 8.0 | 0.00 | 0.00 | 0.00 | 76 | 1008.1 |
| 20260902203837 | 57 | 275 | 2.0 | 7.0 | 0.00 | 0.00 | 0.00 | 76 | 1008.1 |
| 20260902203326 | 57 | 271 | 2.0 | 7.0 | 0.00 | 0.00 | 0.00 | 76 | 1008.0 |
| 20260902202831 | 57 | 246 | 2.0 | 8.0 | 0.00 | 0.00 | 0.00 | 76 | 1008.1 |
| 20260902202331 | 57 | 317 | 2.0 | 8.0 | 0.00 | 0.00 | 0.00 | 76 | 1008.1 |
| 20260902201831 | 58 | 286 | 2.0 | 9.0 | 0.00 | 0.00 | 0.00 | 76 | 1008.1 |
| 20260902201332 | 58 | 292 | 2.0 | 11.0 | 0.00 | 0.00 | 0.00 | 76 | 1008.1 |
| 20260902200851 | 58 | 164 | 1.0 | 11.0 | 0.00 | 0.00 | 0.00 | 76 | 1008.1 |
| 20260902200330 | 58 | 173 | 1.0 | 7.0 | 0.00 | 0.00 | 0.00 | 76 | 1008.1 |
| 20260902195836 | 58 | 296 | 2.0 | 9.0 | 0.00 | 0.00 | 0.00 | 76 | 1008.1 |
| 20260902195325 | 58 | 149 | 2.0 | 9.0 | 0.00 | 0.00 | 0.00 | 76 | 1008.1 |
| 20260902194834 | 58 | 312 | 1.0 | 5.0 | 0.00 | 0.00 | 0.00 | 76 | 1008.1 |
| 20260902194324 | 59 | 264 | 2.0 | 6.0 | 0.00 | 0.00 | 0.00 | 75 | 1008.1 |
| 20260902193831 | 58 | 313 | 3.0 | 7.0 | 0.00 | 0.00 | 0.00 | 75 | 1008.2 |
| 20260902193352 | 58 | 283 | 2.0 | 7.0 | 0.00 | 0.00 | 0.00 | 75 | 1008.2 |
| 20260902192852 | 59 | 200 | 2.0 | 4.0 | 0.00 | 0.00 | 0.00 | 75 | 1008.2 |
| 20260902192339 | 58 | 219 | 2.0 | 4.0 | 0.00 | 0.00 | 0.00 | 74 | 1008.2 |
| 20260902191828 | 58 | 171 | 1.0 | 4.0 | 0.00 | 0.00 | 0.00 | 74 | 1008.1 |
| 20260902191349 | 59 | 266 | 1.0 | 9.0 | 0.00 | 0.00 | 0.00 | 74 | 1008.2 |
| 20260902190828 | 59 | 177 | 1.0 | 9.0 | 0.00 | 0.00 | 0.00 | 74 | 1008.2 |
| 20260902190328 | 59 | 223 | 1.0 | 5.0 | 0.00 | 0.00 | 0.00 | 74 | 1008.2 |
| 20260902185829 | 59 | 200 | 1.0 | 3.0 | 0.00 | 0.00 | 0.00 | 73 | 1008.3 |
| 20260902185329 | 59 | 227 | 1.0 | 3.0 | 0.00 | 0.00 | 0.00 | 73 | 1008.2 |
| 20260902184830 | 59 | 184 | 1.0 | 2.0 | 0.00 | 0.00 | 0.00 | 73 | 1008.2 |
| 20260902184350 | 59 | 242 | 0.0 | 2.0 | 0.00 | 0.00 | 0.00 | 72 | 1008.2 |
| 20260902183831 | 59 | 235 | 0.0 | 3.0 | 0.00 | 0.00 | 0.00 | 71 | 1008.2 |
| 20260902183400 | 59 | 258 | 0.0 | 3.0 | 0.00 | 0.00 | 0.00 | 71 | 1008.2 |
| 20260902182828 | 60 | 325 | 1.0 | 4.0 | 0.00 | 0.00 | 0.00 | 70 | 1008.1 |
| 20260902182328 | 60 | 309 | 1.0 | 4.0 | 0.00 | 0.00 | 0.00 | 70 | 1008.2 |
| 20260902181830 | 60 | 291 | 1.0 | 3.0 | 0.00 | 0.00 | 0.00 | 69 | 1008.2 |
| 20260902181331 | 60 | 273 | 0.0 | 7.0 | 0.00 | 0.00 | 0.00 | 69 | 1008.2 |
| 20260902180829 | 60 | 323 | 2.0 | 7.0 | 0.00 | 0.00 | 0.00 | 68 | 1008.1 |
| 20260902180336 | 61 | 286 | 1.0 | 4.0 | 0.00 | 0.00 | 0.00 | 67 | 1008.1 |
| 20260902175845 | 61 | 249 | 1.0 | 4.0 | 0.00 | 0.00 | 0.00 | 67 | 1008.1 |
| 20260902175327 | 61 | 296 | 2.0 | 4.0 | 0.00 | 0.00 | 0.00 | 66 | 1008.1 |
| 20260902174835 | 62 | 298 | 1.0 | 4.0 | 0.00 | 0.00 | 0.00 | 65 | 1008.1 |
| 20260902174329 | 62 | 322 | 1.0 | 10.0 | 0.00 | 0.00 | 0.00 | 64 | 1008.1 |
| 20260902173829 | 62 | 269 | 2.0 | 10.0 | 0.00 | 0.00 | 0.00 | 64 | 1008.0 |
| 20260902173330 | 63 | 259 | 3.0 | 13.0 | 0.00 | 0.00 | 0.00 | 63 | 1008.0 |
| 20260902172847 | 63 | 302 | 4.0 | 13.0 | 0.00 | 0.00 | 0.00 | 62 | 1007.9 |
| 20260902172326 | 63 | 294 | 3.0 | 9.0 | 0.00 | 0.00 | 0.00 | 63 | 1007.9 |
| 20260902171825 | 63 | 282 | 2.0 | 7.0 | 0.00 | 0.00 | 0.00 | 63 | 1008.0 |
| 20260902171326 | 63 | 276 | 2.0 | 9.0 | 0.00 | 0.00 | 0.00 | 63 | 1007.9 |
| 20260902170825 | 64 | 280 | 2.0 | 12.0 | 0.00 | 0.00 | 0.00 | 62 | 1008.0 |
| 20260902170326 | 64 | 273 | 4.0 | 12.0 | 0.00 | 0.00 | 0.00 | 62 | 1007.9 |
| 20260902165825 | 64 | 281 | 2.0 | 7.0 | 0.00 | 0.00 | 0.00 | 62 | 1008.0 |
| 20260902165326 | 64 | 286 | 2.0 | 9.0 | 0.00 | 0.00 | 0.00 | 61 | 1008.0 |
| 20260902164825 | 64 | 323 | 2.0 | 14.0 | 0.00 | 0.00 | 0.00 | 60 | 1008.0 |
| 20260902164347 | 64 | 275 | 3.0 | 14.0 | 0.00 | 0.00 | 0.00 | 60 | 1008.0 |
| 20260902163834 | 65 | 346 | 4.0 | 11.0 | 0.00 | 0.00 | 0.00 | 59 | 1008.0 |
| 20260902163402 | 65 | 306 | 2.0 | 11.0 | 0.00 | 0.00 | 0.00 | 58 | 1008.0 |
| 20260902162830 | 65 | 313 | 4.0 | 12.0 | 0.00 | 0.00 | 0.00 | 58 | 1007.9 |
| 20260902162330 | 65 | 295 | 5.0 | 12.0 | 0.00 | 0.00 | 0.00 | 57 | 1007.9 |
| 20260902161830 | 65 | 274 | 4.0 | 12.0 | 0.00 | 0.00 | 0.00 | 56 | 1008.0 |
| 20260902161330 | 66 | 317 | 4.0 | 12.0 | 0.00 | 0.00 | 0.00 | 55 | 1008.0 |
| 20260902160829 | 66 | 283 | 4.0 | 12.0 | 0.00 | 0.00 | 0.00 | 55 | 1008.1 |
| 20260902160328 | 66 | 279 | 5.0 | 11.0 | 0.00 | 0.00 | 0.00 | 54 | 1008.0 |
| 20260902155829 | 66 | 313 | 3.0 | 11.0 | 0.00 | 0.00 | 0.00 | 55 | 1008.0 |
| 20260902155350 | 66 | 184 | 3.0 | 13.0 | 0.00 | 0.00 | 0.00 | 55 | 1008.0 |
| 20260902154829 | 66 | 248 | 4.0 | 13.0 | 0.00 | 0.00 | 0.00 | 55 | 1008.1 |
| 20260902154350 | 66 | 312 | 4.0 | 13.0 | 0.00 | 0.00 | 0.00 | 55 | 1008.1 |
| 20260902153828 | 66 | 298 | 6.0 | 15.0 | 0.00 | 0.00 | 0.00 | 55 | 1008.1 |
| 20260902153348 | 66 | 291 | 7.0 | 17.0 | 0.00 | 0.00 | 0.00 | 55 | 1008.0 |
| 20260902152828 | 67 | 318 | 7.0 | 17.0 | 0.00 | 0.00 | 0.00 | 54 | 1008.0 |
| 20260902152328 | 67 | 314 | 5.0 | 14.0 | 0.00 | 0.00 | 0.00 | 54 | 1008.1 |
| 20260902151829 | 67 | 288 | 6.0 | 19.0 | 0.00 | 0.00 | 0.00 | 54 | 1008.1 |
| 20260902151350 | 67 | 331 | 7.0 | 15.0 | 0.00 | 0.00 | 0.00 | 53 | 1008.1 |
| 20260902150830 | 67 | 300 | 7.0 | 15.0 | 0.00 | 0.00 | 0.00 | 54 | 1008.2 |
| 20260902150329 | 67 | 342 | 6.0 | 15.0 | 0.00 | 0.00 | 0.00 | 53 | 1008.3 |
| 20260902145829 | 67 | 305 | 5.0 | 14.0 | 0.00 | 0.00 | 0.00 | 54 | 1008.2 |
| 20260902145339 | 67 | 279 | 8.0 | 16.0 | 0.00 | 0.00 | 0.00 | 54 | 1008.3 |
| 20260902144829 | 68 | 319 | 7.0 | 16.0 | 0.00 | 0.00 | 0.00 | 54 | 1008.3 |
| 20260902144329 | 67 | 286 | 3.0 | 17.0 | 0.00 | 0.00 | 0.00 | 55 | 1008.2 |
| 20260902143830 | 67 | 265 | 6.0 | 17.0 | 0.00 | 0.00 | 0.00 | 53 | 1008.2 |
| 20260902143330 | 67 | 263 | 6.0 | 17.0 | 0.00 | 0.00 | 0.00 | 53 | 1008.3 |
| 20260902142850 | 67 | 279 | 5.0 | 17.0 | 0.00 | 0.00 | 0.00 | 53 | 1008.4 |
| 20260902142336 | 67 | 277 | 5.0 | 18.0 | 0.00 | 0.00 | 0.00 | 55 | 1008.5 |
| 20260902141845 | 67 | 296 | 7.0 | 21.0 | 0.00 | 0.00 | 0.00 | 53 | 1008.3 |
| 20260902141349 | 68 | 311 | 9.0 | 18.0 | 0.00 | 0.00 | 0.00 | 52 | 1008.3 |
| 20260902140835 | 68 | 280 | 6.0 | 18.0 | 0.00 | 0.00 | 0.00 | 52 | 1008.5 |
| 20260902140324 | 68 | 275 | 7.0 | 16.0 | 0.00 | 0.00 | 0.00 | 53 | 1008.4 |
| 20260902135825 | 68 | 309 | 6.0 | 14.0 | 0.00 | 0.00 | 0.00 | 53 | 1008.2 |
| 20260902135346 | 68 | 298 | 6.0 | 16.0 | 0.00 | 0.00 | 0.00 | 52 | 1008.2 |
| 20260902134824 | 68 | 306 | 9.0 | 15.0 | 0.00 | 0.00 | 0.00 | 51 | 1008.1 |
| 20260902134324 | 68 | 279 | 6.0 | 21.0 | 0.00 | 0.00 | 0.00 | 52 | 1008.1 |
| 20260902133845 | 68 | 292 | 9.0 | 21.0 | 0.00 | 0.00 | 0.00 | 48 | 1008.2 |
| 20260902133325 | 69 | 289 | 10.0 | 21.0 | 0.00 | 0.00 | 0.00 | 50 | 1008.0 |
| 20260902132825 | 69 | 296 | 7.0 | 18.0 | 0.00 | 0.00 | 0.00 | 51 | 1008.1 |
| 20260902132326 | 69 | 279 | 9.0 | 18.0 | 0.00 | 0.00 | 0.00 | 49 | 1007.9 |
| 20260902131826 | 70 | 289 | 6.0 | 13.0 | 0.00 | 0.00 | 0.00 | 49 | 1008.0 |
| 20260902131328 | 70 | 309 | 4.0 | 17.0 | 0.00 | 0.00 | 0.00 | 46 | 1008.0 |
| 20260902130828 | 70 | 288 | 5.0 | 20.0 | 0.00 | 0.00 | 0.00 | 44 | 1007.9 |
| 20260902130327 | 70 | 360 | 4.0 | 17.0 | 0.00 | 0.00 | 0.00 | 49 | 1007.9 |
| 20260902125828 | 69 | 101 | 6.0 | 17.0 | 0.00 | 0.00 | 0.00 | 48 | 1007.9 |
| 20260902125328 | 69 | 219 | 4.0 | 13.0 | 0.00 | 0.00 | 0.00 | 54 | 1007.8 |
| 20260902124836 | 69 | 306 | 4.0 | 15.0 | 0.00 | 0.00 | 0.00 | 52 | 1007.8 |
| 20260902124324 | 70 | 311 | 4.0 | 13.0 | 0.00 | 0.00 | 0.00 | 51 | 1007.7 |
| 20260902123825 | 70 | 304 | 4.0 | 15.0 | 0.00 | 0.00 | 0.00 | 50 | 1007.8 |
| 20260902123326 | 70 | 284 | 6.0 | 15.0 | 0.00 | 0.00 | 0.00 | 50 | 1007.8 |
| 20260902122827 | 70 | 315 | 4.0 | 18.0 | 0.00 | 0.00 | 0.00 | 49 | 1007.9 |
| 20260902122334 | 70 | 276 | 7.0 | 18.0 | 0.00 | 0.00 | 0.00 | 49 | 1008.0 |
| 20260902121841 | 70 | 304 | 6.0 | 20.0 | 0.00 | 0.00 | 0.00 | 50 | 1007.9 |
| 20260902121326 | 70 | 302 | 5.0 | 16.0 | 0.00 | 0.00 | 0.00 | 53 | 1008.0 |
| 20260902120834 | 70 | 319 | 5.0 | 17.0 | 0.00 | 0.00 | 0.00 | 55 | 1007.8 |
| 20260902120340 | 70 | 283 | 6.0 | 17.0 | 0.00 | 0.00 | 0.00 | 56 | 1007.8 |
| 20260902115828 | 69 | 298 | 7.0 | 15.0 | 0.00 | 0.00 | 0.00 | 57 | 1007.9 |
| 20260902115349 | 69 | 309 | 7.0 | 17.0 | 0.00 | 0.00 | 0.00 | 58 | 1007.8 |
| 20260902114829 | 70 | 318 | 6.0 | 17.0 | 0.00 | 0.00 | 0.00 | 57 | 1008.0 |
| 20260902114330 | 71 | 317 | 3.0 | 13.0 | 0.00 | 0.00 | 0.00 | 58 | 1007.8 |
| 20260902113830 | 71 | 290 | 5.0 | 13.0 | 0.00 | 0.00 | 0.00 | 58 | 1008.0 |
| 20260902113332 | 70 | 292 | 6.0 | 13.0 | 0.00 | 0.00 | 0.00 | 59 | 1007.8 |
| 20260902112840 | 69 | 304 | 5.0 | 11.0 | 0.00 | 0.00 | 0.00 | 60 | 1007.9 |
| 20260902112328 | 69 | 266 | 5.0 | 12.0 | 0.00 | 0.00 | 0.00 | 61 | 1008.0 |
| 20260902111850 | 68 | 310 | 6.0 | 18.0 | 0.00 | 0.00 | 0.00 | 61 | 1008.0 |
| 20260902111330 | 69 | 293 | 7.0 | 18.0 | 0.00 | 0.00 | 0.00 | 60 | 1008.1 |
| 20260902110830 | 69 | 279 | 3.0 | 14.0 | 0.00 | 0.00 | 0.00 | 64 | 1008.1 |
| 20260902110340 | 68 | 294 | 4.0 | 12.0 | 0.00 | 0.00 | 0.00 | 69 | 1008.2 |
| 20260902105828 | 67 | 229 | 1.0 | 5.0 | 0.00 | 0.00 | 0.00 | 70 | 1008.2 |
| 20260902105329 | 67 | 275 | 2.0 | 10.0 | 0.00 | 0.00 | 0.00 | 71 | 1008.3 |
| 20260902104828 | 67 | 303 | 2.0 | 10.0 | 0.00 | 0.00 | 0.00 | 69 | 1008.2 |
| 20260902104330 | 67 | 290 | 3.0 | 10.0 | 0.00 | 0.00 | 0.00 | 69 | 1008.2 |
| 20260902103850 | 68 | 304 | 4.0 | 11.0 | 0.00 | 0.00 | 0.00 | 69 | 1008.3 |
| 20260902103350 | 68 | 187 | 4.0 | 12.0 | 0.00 | 0.00 | 0.00 | 69 | 1008.1 |
| 20260902102839 | 68 | 288 | 3.0 | 12.0 | 0.00 | 0.00 | 0.00 | 69 | 1008.2 |
| 20260902102329 | 69 | 286 | 3.0 | 8.0 | 0.00 | 0.00 | 0.00 | 69 | 1008.3 |
| 20260902101830 | 69 | 82 | 2.0 | 11.0 | 0.00 | 0.00 | 0.00 | 69 | 1008.3 |
| 20260902101331 | 69 | 167 | 3.0 | 11.0 | 0.00 | 0.00 | 0.00 | 69 | 1008.3 |
| 20260902100831 | 69 | 293 | 5.0 | 10.0 | 0.00 | 0.00 | 0.00 | 69 | 1008.3 |
| 20260902100338 | 69 | 197 | 2.0 | 9.0 | 0.00 | 0.00 | 0.00 | 72 | 1008.3 |
| 20260902095829 | 68 | 213 | 3.0 | 11.0 | 0.00 | 0.00 | 0.00 | 71 | 1008.4 |
| 20260902095328 | 67 | 326 | 4.0 | 11.0 | 0.00 | 0.00 | 0.00 | 73 | 1008.4 |
| 20260902094849 | 67 | 275 | 4.0 | 10.0 | 0.00 | 0.00 | 0.00 | 74 | 1008.3 |
| 20260902094330 | 66 | 245 | 3.0 | 12.0 | 0.00 | 0.00 | 0.00 | 76 | 1008.3 |
| 20260902093829 | 66 | 273 | 3.0 | 12.0 | 0.00 | 0.00 | 0.00 | 78 | 1008.3 |